Tracking 34305 objects as of 7-Jun-2026
HD Live streaming from Space Station
objects crossing your sky now

SECOR 5 (EGRS 5)

Track SECOR 5 (EGRS 5) now!
10-day predictions
SECOR 5 (EGRS 5) is classified as:


NORAD ID: 1506
Int'l Code: 1965-063A
Perigee: 1,142.2 km
Apogee: 2,427.5 km
Inclination: 69.2 °
Period: 122.2 minutes
Semi major axis: 8155 km
RCS: 0.4268 m2 (medium)
Launch date: August 10, 1965
Source: United States (US)
Launch site: WALLOPS ISLAND (WLPIS)
Your satellite tracking list
Your tracking list is empty




NASA's NSSDC Master Catalog

Two Line Element Set (TLE):
1 01506U 65063A   26157.76742104  .00000006  00000-0  26356-3 0  9995
2 01506  69.2330 263.9038 0788012 171.7724 273.6971 11.78689426617026
Source of the keplerian elements: AFSPC